Regional Weather Roundup
Issued by NWS

Home | Current Version | Previous Version | Text Only | Print | Product List | Glossary On
Versions: 1 2 3 4 5 6 7 8 9 10 11 12 13 14 15 16 17 18 19 20 21 22 23 24 25 26 27 28 29 30 31 32 33 34 35 36 37 38 39 40 41 42 43 44 45 46 47 48 49 50
000
ASUS43 KFSD 182110
RWRSD

WEATHER ROUNDUP FOR SOUTH DAKOTA
NATIONAL WEATHER SERVICE SIOUX FALLS SD
400 PM CDT FRI APR 18 2014

NOTE: "FAIR" INDICATES FEW OR NO CLOUDS BELOW 12,000 FEET WITH NO
SIGNIFICANT WEATHER AND/OR OBSTRUCTIONS TO VISIBILITY.


SDZ001>005-009-010-012>017-182200-
NORTHWEST AND NORTH CENTRAL SOUTH DAKOTA

CITY           SKY/WX    TMP DP  RH WIND       PRES   REMARKS
BUFFALO          N/A     67  39  35 SE23      29.58F
FAITH            N/A     66  40  38 SE21G29   29.66F
MOBRIDGE       CLOUDY    68  39  34 SE25      29.72F
$$

SDZ012>016-024>037-041>051-057-063-072>074-182200-
SOUTHWEST AND SOUTH CENTRAL SOUTH DAKOTA

CITY           SKY/WX    TMP DP  RH WIND       PRES   REMARKS
RAPID CTY ARPT CLOUDY    76  36  23 S23G31    29.66F
PIERRE         PTSUNNY   80  38  22 S22G31    29.69F
CUSTER         CLOUDY    62  31  31 SW13G23   29.80F
ELLSWORTH AFB  CLOUDY    76  38  26 SW12      29.65F
PHILIP         PTSUNNY   82  37  20 S22       29.66F
PINE RIDGE     CLOUDY    76  36  23 SW21G29   29.75F
SPEARFISH      FAIR      73  32  21 SW25G32   29.64F
WINNER         FAIR      77  33  20 S30G40    29.79F
$$

SDZ004>011-016>023-039-040-182200-
NORTHEAST SOUTH DAKOTA

CITY           SKY/WX    TMP DP  RH WIND       PRES   REMARKS
ABERDEEN       MOSUNNY   66  37  34 SE32G45   29.89F
WATERTOWN      MOSUNNY   60  36  40 SE28G43   30.00F
SISSETON         N/A     49  37  63 SE31G39   30.06F
$$

SDZ017-020-022-023-036>040-048>070-182200-
SOUTHEAST SOUTH DAKOTA

CITY           SKY/WX    TMP DP  RH WIND       PRES   REMARKS
SIOUX FALLS    PTSUNNY   65  35  33 S31G40    30.03F
HURON          SUNNY     70  38  31 S24G41    29.88F
CHAMBERLAIN      N/A     78  37  22 S29G44    29.80F
MITCHELL       SUNNY     71  40  32 S29G47    29.91F
YANKTON        MOSUNNY   68  39  34 S28G38    30.01F
$$

ABBREVIATIONS USED IN REMARKS
   TC - TEMPERATURE IN CELSIUS
  WCI - WIND CHILL INDEX
   HX - HEAT INDEX
  VSB - VISIBILITY




USA.gov is the U.S. government's official web portal to all federal, state and local government web resources and services.